Regional Weather Roundup
Issued by NWS

Home | Current Version | Previous Version | Text Only | Print | Product List | Glossary On
Versions: 1 2 3 4 5 6 7 8 9 10 11 12 13 14 15 16 17 18 19 20 21 22 23 24 25 26 27 28 29 30 31 32 33 34 35 36 37 38 39 40 41 42 43 44 45 46 47 48 49 50
000
ASHW40 PHFO 301030
RWRHI

WEATHER ROUNDUP FOR HAWAII
NATIONAL WEATHER SERVICE HONOLULU HI
1200 AM HST SAT AUG 30 2014

THIS IS AN AUTOMATED REPORT THAT HAS NOT BEEN QUALITY CONTROLLED.

NOTE..."FAIR" INDICATES FEW OR NO CLOUDS BELOW 12,000 FEET WITH NO
SIGNIFICANT WEATHER AND/OR OBSTRUCTIONS TO VISIBILITY.

* - THESE SITES REPORT LIMITED FIELDS

HIZ001>004-301100-
KAUAI-NIIHAU-

CITY           SKY/WX    TMP DP  RH WIND       PRES   REMARKS
LIHUE APT      MOCLDY    73  66  78 NW3       29.96F
PORT ALLEN*      N/A     70 N/A N/A NE5         N/A
POIPU*           N/A     73 N/A N/A N3          N/A
PRINCEVILLE*   NOT AVBL
KOKOLE POINT*  NOT AVBL
MOLOAA DAIRY*  NOT AVBL
WAIMEA HTS*    NOT AVBL
PUU OPAE*      NOT AVBL
PUU LUA*       NOT AVBL
MAKAHA RIDGE*  NOT AVBL
$$

HIZ005>011-301100-
OAHU-

CITY           SKY/WX    TMP DP  RH WIND       PRES   REMARKS
HONOLULU       PTCLDY    78  67  68 NW3       29.93F
KALAELOA       PTCLDY    72  68  87 CALM      29.95S
KANEOHE MCB    PTCLDY    73  69  86 E3        29.94F
WHEELER FIELD  FAIR      70  65  84 W6        29.96S
BELLOWS*         N/A    N/A N/A N/A N6          N/A
KAHUKU*          N/A    N/A N/A N/A E1          N/A
WHEELER*       NOT AVBL
WAIANAE HARBOR NOT AVBL
DILLINGHAM*      N/A     72  68  88 SE1         N/A
KAHUKU TRN*      N/A     73  70  88 SE3         N/A
KAWAILOA*      NOT AVBL
KII*             N/A     79  72  78 E6G12       N/A
MAKUA RANGE*     N/A     75  66  73 E3          N/A
OAHU FOREST NW NOT AVBL
SCHOFIELD BRK*   N/A     66  64  94 MISG        N/A
SCHOFIELD S*   NOT AVBL
WAIANAE VLY*   NOT AVBL
KUAOKALA*      NOT AVBL
HONOULIUULI*   NOT AVBL
MOKUOLOE IS*     N/A    N/A N/A N/A MISG        N/A
PALEHUA*       NOT AVBL
WAIAWA PHB*    NOT AVBL
$$

HIZ012>013-301100-
MOLOKAI-

CITY           SKY/WX    TMP DP  RH WIND       PRES   REMARKS
MOLOKAI AIRPT  PTCLDY    75  70  84 NE6       29.95F
KALAUPAPA      NOT AVBL
MAKAPULAPAI*   NOT AVBL
MOLOKAI 1*     NOT AVBL
PUU ALII*        N/A     60  60  99 E2          N/A
$$

HIZ016-301100-
KAHOOLAWE-

CITY           SKY/WX    TMP DP  RH WIND       PRES   REMARKS
KAHOOLAWE*     NOT AVBL
HAKIOAWA*      NOT AVBL
HONOKANAIA*      N/A     78  70  76 NE8G20    29.94F
KANELOA*         N/A     73  70  88 N3G14     30.04S
KEALIALALO*    NOT AVBL
LUA MAKIKA*    NOT AVBL
$$

HIZ014>015-301100-
LANAI-

CITY           SKY/WX    TMP DP  RH WIND       PRES   REMARKS
LANAI CITY     FAIR      72  68  87 E6        29.99F
LANAI 1*       NOT AVBL
$$

HIZ017>028-301100-
MAUI-

CITY           SKY/WX    TMP DP  RH WIND       PRES   REMARKS
KAHULUI        CLEAR     75  68  78 N5        29.93F
KAPALUA-W MAUI NOT AVBL
HANA AIRPORT   PTCLDY    72  70  94 S3        29.96F
HANA*            N/A     73 N/A N/A S1          N/A
HALEAKALA SUMM   N/A     43  34  70 NE13        N/A
MAALAEA BAY*   NOT AVBL
HALEAKALA*     NOT AVBL
KAUPO GAP*     NOT AVBL
KULA 1*          N/A     51  50  96 E5          N/A
$$

HIZ023>026-301100-
BIG ISLAND OF HAWAII COAST AND LOWER SLOPES-

CITY           SKY/WX    TMP DP  RH WIND       PRES   REMARKS
KAILUA KONA    CLOUDY    79  68  69 E6        29.91S
HILO           CLEAR     72  68  87 SW5       29.93F
HONOKAA*       NOT AVBL
KAWAIHAE MWT*    N/A     79 N/A N/A W5          N/A
KAWAIHAE*        N/A     79 N/A N/A W6          N/A
SOUTH POINT*     N/A     70 N/A N/A NE5         N/A
UPOLU AIRPORT*   N/A    N/A N/A N/A E9          N/A
KAMUELA*       SUNNY     63  63 100 NE8       30.04S
HAKALAU*         N/A     48  45  87 SW2         N/A
KALOKO-HONOKO*   N/A     75  66  73 NE6       29.89F
PALI 2*          N/A     64  61  88 NW3G10      N/A
KEALAKOMO*     NOT AVBL
KAUPULEHU*     NOT AVBL
KAPAPALA*        N/A     65  64  95 CALM        N/A
LOWER KAHUKU*  NOT AVBL
PUHE CS*       NOT AVBL
PUHO CS*         N/A     72  64  77 E2          N/A
PTA KEAMUKU*     N/A     61  55  82 S7          N/A
WAIKOLOA*      NOT AVBL
$$

HIZ027>028-301100-
BIG ISLAND OF HAWAII INTERIOR AND SUMMMITS-

CITY           SKY/WX    TMP DP  RH WIND       PRES   REMARKS
BRADSHAW FIELD MOCLDY    50  49  95 SE5       30.27F
MK VISITOR CEN NOT AVBL
MAUNA KEA*       N/A     45 -17   7 N10         N/A
MAUNA LOA*       N/A     46  -9   9 MISG        N/A
MAUNA LOA 1*   NOT AVBL
PTA KIPUKA*      N/A     52  50  93 E2          N/A
PTA RANGE 17*    N/A     54  50  87 SW2         N/A
PTA WEST*        N/A     55  54  94 S8          N/A
NENE CABIN*    NOT AVBL
AHUMOA*        NOT AVBL
PTA PORTABLE*  NOT AVBL
PUU MALI*      NOT AVBL
$$

HIC003-301100-
NORTHWEST ISLANDS-

CITY           SKY/WX    TMP DP  RH WIND       PRES   REMARKS
MIDWAY ISLAND  CLEAR     81  73  78 E3        30.03F
MIDWAY NOS*    NOT AVBL
FRENCH FRIGATE NOT AVBL
$$

PHZ110>124-180-301100-
BUOY REPORTS

STATION/POSITION TIME  TEMP    WIND        PRES    WAVE   SWELL
                       AIR SEA DIR/SP/G            HT/PER HT/DIR
                 (UTC) (F)     (DEG/KT/KT) (MB)    (FT/S) (FT/D)
BUOY 51001       NOT AVBL
BUOY 51101       NOT AVBL
BUOY 51100       1000   78 80  100/ 12/ 14 1014.2F
BUOY 51003       1000   81 82   60/ 10/ 12 1013.5F   6/15   5
BUOY 51004       0905   78 81   60/  8/ 10 1012.9F   6/14   7/120
BARBERS PT BUOY  NOT AVBL
WAIMEA BAY BUOY  1000      81                N/A     3/ 9   2/ 30
KAILUA BAY BUOY  1000      81                N/A     5/14   3/ 80
LANAI BUOY       NOT AVBL
BARBERS PT 2     1000      81                N/A     5/13   5/190
PAUWELA MAUI     1000      81                N/A     5/13   3/ 90
HILO             NOT AVBL
KANEOHE BAY BUOY 1000      81                N/A     4/15   2/ 50
HANALEI KAUAI    NOT AVBL
KAHULUI HARBOR   1000   78 83  360/  9/ 10 1013.4F
HONOLULU HARBOR  1000   79      60/  2/  4 1013.9F
KILO NALU        NOT AVBL
HILO HARBOR      1000   73     200/  4/  5 1013.0F
MOKUOLOE         1000      83              1014.2F
NAWILIWILI       1000      82                N/A
WHOTS BUOY       NOT AVBL
BUOY 51028       NOT AVBL
$$

......................KEY........................................
  SKY/WX - SKY CONDITIONS/PRESENT WEATHER
  TMP    - TEMPERATURE IN FAHRENHEIT
  DWPT   - DEWPOINT IN FAHRENHEIT
  RH     - RELATIVE HUMIDITY IN PERCENT
  WIND   - DIRECTION AND SPEED /MPH FOR ISLANDS...KTS FOR BUOYS/
  PRES   - MEAN SEA LEVEL PRESSURE IN INCHES OF HG
  VSB    - VISIBILITY IN MILES
  HX     - HEAT INDEX
  WCI    - WIND CHILL INDEX
  VRB    - VARIABLE WIND DIRECTION
  N/A    - NOT AVAILABLE



USA.gov is the U.S. government's official web portal to all federal, state and local government web resources and services.